Weather in Berezniki

Russia / Perm Krai     59°24′28″N   56°48′14″E
temp.,
°C
wind,
m/s
gust,
m/s
humid.,
%
clouds,
%
prec.,
mm/h
press.,
hPa
HPBL,
m
27 february, sat
sat2723:00−20se3109339 0.0 1020237
02:00−20se310910 0.0 1018254
05:00−21se38910 0.0 1017190
08:00−20ese310890 0.0 1015227
11:00−15ese49750 0.0 1014409
14:00−11ese48780 0.0 1012602
17:00−12ese48810 0.0 1012622
20:00−19ese311880 0.0 1012443
28 february, sun
sun2823:00−21e38915 0.0 1014204
02:00−22e379137 0.0 1013195
05:00−23ene369119 0.0 1014146
08:00−24ene369210 0.0 1014127
11:00−18e38835 0.0 1014465
14:00−13ene368026 0.0 1013686
17:00−12ene368360 0.0 1014702
20:00−18e239231 0.0 101529
1 march, mon
mon123:00−20e129240 0.0 101720
02:00−21ne129099 0.0 101820
05:00−21n229199 0.0 101920
08:00−23nne129245 0.0 102020
11:00−18nne128523 0.0 1020199
14:00−12sw11800 0.0 1018357
17:00−12ssw128419 0.0 1017324
20:00−17s23950 0.0 101548
2 march, tue
tue223:00−19s38970 0.0 1014163
02:00−18s4119763 0.0 1012283
05:00−17s5119581 0.0 1009375
08:00−16s51293100 0.1 1006430
11:00−15s61292100 0.5 1004501
14:00−12s61191100 0.4 1003615
17:00−11s51092100 1.0 1002719
20:00−12s41094100 0.5 1001681
3 march, wed
wed323:00−13s3995100 0.9 1001464
02:00−14s3895100 0.1 1001335
05:00−13sse2695100 0.4 1001289
08:00−13sse2596100 0.6 1000218
11:00−11s1392100 0.9 1000282
14:00−8ssw1188100 0.3 1000374
17:00−8wsw1191100 0.6 1000255
20:00−10wnw0097100 0.2 100021